GW3294 Weather Reports


Display with metric or nautical units.
time (UTC)temp
F
wind
direction
speed
MPH
gust
MPH
rain 1hr
in
rain 24hr
in
rain mn
in
humidity
%
barometer
mb
20260906142943 81 112 3.0 4.0 0.00 0.00 0.00 78 1018.9
20260906142436 82 35 1.0 5.0 0.00 0.00 0.00 77 1018.9
20260906141931 81 232 1.0 4.0 0.00 0.00 0.00 78 1018.7
20260906141426 80 118 1.0 3.0 0.00 0.00 0.00 81 1018.6
20260906140926 78 91 1.0 4.0 0.00 0.00 0.00 82 1018.6
20260906140420 78 218 1.0 5.0 0.00 0.00 0.00 82 1018.7
20260906135918 78 163 3.0 3.0 0.00 0.00 0.00 84 1018.5
20260906135412 78 154 2.0 4.0 0.00 0.00 0.00 84 1018.5
20260906134908 77 277 2.0 4.0 0.00 0.00 0.00 86 1018.5
20260906134403 77 304 2.0 3.0 0.00 0.00 0.00 86 1018.8
20260906133858 77 135 1.0 1.0 0.00 0.00 0.00 86 1018.8
20260906133354 76 162 2.0 3.0 0.00 0.00 0.00 87 1018.7
20260906132849 76 140 2.0 3.0 0.00 0.00 0.00 87 1018.5
20260906132344 76 160 2.0 2.0 0.00 0.00 0.00 88 1018.7
20260906131840 76 168 1.0 3.0 0.00 0.00 0.00 88 1018.8
20260906131335 76 192 2.0 3.0 0.00 0.00 0.00 88 1018.8
20260906130831 76 309 0.0 1.0 0.00 0.00 0.00 89 1018.7
20260906130330 75 344 1.0 1.0 0.00 0.00 0.00 89 1018.7
20260906125830 75 193 1.0 2.0 0.00 0.00 0.00 89 1018.5
20260906125326 75 203 0.0 2.0 0.00 0.00 0.00 90 1018.7
20260906124822 75 164 1.0 2.0 0.00 0.00 0.00 90 1018.6
20260906124318 75 152 0.0 3.0 0.00 0.00 0.00 91 1018.5
20260906123816 75 195 0.0 2.0 0.00 0.00 0.00 92 1018.5
20260906123311 74 185 0.0 3.0 0.00 0.00 0.00 92 1018.4
20260906122811 74 62 0.0 2.0 0.00 0.00 0.00 93 1018.2
20260906122301 74 205 0.0 2.0 0.00 0.00 0.00 93 1018.2
20260906121758 74 25 0.0 1.0 0.00 0.00 0.00 93 1018.3
20260906121253 74 89 0.0 0.0 0.00 0.00 0.00 93 1018.2
20260906120748 74 195 0.0 1.0 0.00 0.00 0.00 93 1018.1
20260906120245 74 195 0.0 1.0 0.00 0.00 0.00 93 1018.1
20260906115740 74 197 0.0 1.0 0.00 0.00 0.00 93 1018.2
20260906115235 74 124 0.0 0.0 0.00 0.00 0.00 93 1018.1
20260906114734 74 124 0.0 0.0 0.00 0.00 0.00 93 1017.8
20260906114224 74 205 0.0 0.0 0.00 0.00 0.00 92 1017.7
20260906113719 74 132 0.0 1.0 0.00 0.00 0.00 92 1018.1
20260906113218 74 154 0.0 1.0 0.00 0.00 0.00 92 1018.0
20260906112713 74 217 0.0 0.0 0.00 0.00 0.00 92 1017.9
20260906112210 74 217 0.0 1.0 0.00 0.00 0.00 92 1017.8
20260906111708 75 217 0.0 0.0 0.00 0.00 0.00 92 1017.7
20260906111157 75 157 0.0 0.0 0.00 0.00 0.00 92 1017.9
20260906110652 75 157 0.0 1.0 0.00 0.00 0.00 91 1017.7
20260906110147 75 217 0.0 0.0 0.00 0.00 0.00 91 1017.5
20260906105641 75 37 0.0 0.0 0.00 0.00 0.00 90 1017.7
20260906105138 75 82 0.0 1.0 0.00 0.00 0.00 91 1017.5
20260906104637 75 315 0.0 0.0 0.00 0.00 0.00 91 1017.4
20260906104136 75 224 0.0 0.0 0.00 0.00 0.00 91 1017.4
20260906103635 76 224 0.0 0.0 0.00 0.00 0.00 90 1017.4
20260906103130 76 202 0.0 0.0 0.00 0.00 0.00 89 1017.3
20260906102625 76 129 0.0 1.0 0.00 0.00 0.00 89 1017.3
20260906102120 76 75 0.0 0.0 0.00 0.00 0.00 89 1017.3
20260906101614 76 297 0.0 1.0 0.00 0.00 0.00 89 1017.4
20260906101114 76 322 0.0 0.0 0.00 0.00 0.00 87 1017.4
20260906100610 76 309 0.0 0.0 0.00 0.00 0.00 88 1017.3
20260906100110 77 309 0.0 0.0 0.00 0.00 0.00 88 1017.1
20260906095610 77 142 0.0 1.0 0.00 0.00 0.00 88 1017.3
20260906095105 77 251 1.0 2.0 0.00 0.00 0.00 89 1017.2
20260906094604 77 190 0.0 1.0 0.00 0.00 0.00 89 1017.3
20260906094100 77 148 1.0 3.0 0.00 0.00 0.00 89 1017.1
20260906093556 77 246 0.0 2.0 0.00 0.00 0.00 89 1017.2
20260906093051 77 148 0.0 2.0 0.00 0.00 0.00 89 1017.1
20260906092546 77 113 0.0 1.0 0.00 0.00 0.00 89 1017.0
20260906092041 78 129 0.0 0.0 0.00 0.00 0.00 89 1016.9
20260906091537 78 333 0.0 0.0 0.00 0.00 0.00 88 1016.8
20260906091033 78 333 0.0 1.0 0.00 0.00 0.00 88 1016.8
20260906090527 78 243 0.0 2.0 0.00 0.00 0.00 88 1016.9
20260906090022 78 235 0.0 1.0 0.00 0.00 0.00 88 1016.7
20260906085521 78 230 0.0 0.0 0.00 0.00 0.00 88 1016.9
20260906085021 78 185 1.0 3.0 0.00 0.00 0.00 89 1017.0
20260906084515 78 226 1.0 1.0 0.00 0.00 0.00 89 1016.6
20260906084014 78 174 0.0 1.0 0.00 0.00 0.00 89 1016.7
20260906083511 79 60 0.0 3.0 0.00 0.00 0.00 89 1016.7
20260906083010 79 186 0.0 2.0 0.00 0.00 0.00 89 1016.7
20260906082505 79 184 0.0 1.0 0.00 0.00 0.00 90 1016.6
20260906082001 79 132 0.0 2.0 0.00 0.00 0.00 90 1016.7
20260906081456 79 236 0.0 1.0 0.00 0.00 0.00 90 1016.5
20260906080952 79 222 1.0 2.0 0.00 0.00 0.00 90 1016.7
20260906080449 79 249 0.0 0.0 0.00 0.00 0.00 90 1016.3
20260906075948 79 28 0.0 2.0 0.00 0.00 0.00 89 1016.7
20260906075443 79 293 0.0 1.0 0.00 0.00 0.00 89 1016.5
20260906074938 80 119 0.0 0.0 0.00 0.00 0.00 89 1016.8
20260906074433 80 246 0.0 1.0 0.00 0.00 0.00 89 1016.5
20260906073931 80 113 0.0 1.0 0.00 0.00 0.00 89 1016.7
20260906073420 80 130 0.0 0.0 0.00 0.00 0.00 89 1016.6
20260906072916 80 89 0.0 3.0 0.00 0.00 0.00 89 1016.6
20260906072412 80 125 0.0 1.0 0.00 0.00 0.00 89 1016.7
20260906071908 80 118 2.0 2.0 0.00 0.00 0.00 89 1016.6
20260906071403 80 89 0.0 0.0 0.00 0.00 0.00 88 1016.5
20260906070858 80 89 0.0 1.0 0.00 0.00 0.00 88 1016.4
20260906070354 81 144 0.0 2.0 0.00 0.00 0.00 88 1016.6
20260906065850 81 62 0.0 2.0 0.00 0.00 0.00 87 1016.5
20260906065344 81 252 0.0 1.0 0.00 0.00 0.00 88 1016.6
20260906064840 81 117 0.0 1.0 0.00 0.00 0.00 88 1016.6
20260906064337 81 164 1.0 2.0 0.00 0.00 0.00 87 1016.7
20260906063831 81 259 2.0 3.0 0.00 0.00 0.00 88 1016.7
20260906063326 80 76 0.0 2.0 0.00 0.00 0.00 88 1016.7
20260906062822 81 145 0.0 3.0 0.00 0.00 0.00 87 1016.8
20260906062321 81 37 0.0 1.0 0.00 0.00 0.00 87 1016.8
20260906061816 81 333 0.0 1.0 0.00 0.00 0.00 87 1016.6
20260906061312 81 230 0.0 1.0 0.00 0.00 0.00 87 1016.8
20260906060807 81 157 0.0 2.0 0.00 0.00 0.00 87 1016.6
20260906060305 81 62 0.0 1.0 0.00 0.00 0.00 87 1016.6
20260906055800 81 37 0.0 0.0 0.00 0.00 0.00 87 1016.6
20260906055255 81 89 0.0 1.0 0.00 0.00 0.00 87 1016.7
20260906054750 81 217 0.0 2.0 0.00 0.00 0.00 86 1016.5
20260906054246 81 135 0.0 0.0 0.00 0.00 0.00 86 1016.7
20260906053743 81 130 0.0 2.0 0.00 0.00 0.00 86 1016.6
20260906053238 81 166 0.0 2.0 0.00 0.00 0.00 86 1016.9
20260906052732 81 157 0.0 1.0 0.00 0.00 0.00 85 1016.6
20260906052229 81 255 0.0 1.0 0.00 0.00 0.00 85 1016.6
20260906051725 81 195 0.0 0.0 0.00 0.00 0.00 85 1016.7
20260906051225 81 117 0.0 1.0 0.00 0.00 0.00 84 1016.8
20260906050720 81 230 0.0 1.0 0.00 0.00 0.00 85 1016.6
20260906050215 81 124 0.0 0.0 0.00 0.00 0.00 83 1016.5
20260906045714 81 125 0.0 1.0 0.00 0.00 0.00 83 1016.4
20260906045208 81 55 0.0 1.0 0.00 0.00 0.00 82 1016.3
20260906044705 81 269 0.0 1.0 0.00 0.00 0.00 85 1016.4
20260906044200 81 153 1.0 1.0 0.00 0.00 0.00 84 1016.3
20260906043656 81 242 0.0 0.0 0.00 0.00 0.00 83 1016.5
20260906043152 81 166 0.0 1.0 0.00 0.00 0.00 82 1016.4
20260906042651 81 135 0.0 0.0 0.00 0.00 0.00 82 1016.3
20260906042144 81 129 0.0 1.0 0.00 0.00 0.00 83 1016.3
20260906041641 81 89 0.0 1.0 0.00 0.00 0.00 82 1016.2
20260906041135 81 124 0.0 0.0 0.00 0.00 0.00 80 1016.3
20260906040625 81 124 0.0 1.0 0.00 0.00 0.00 82 1016.2
20260906040120 81 135 0.0 1.0 0.00 0.00 0.00 81 1016.1
20260906035615 81 124 0.0 1.0 0.00 0.00 0.00 81 1015.9
20260906035111 81 122 0.0 2.0 0.00 0.00 0.00 81 1016.0
20260906034606 81 164 0.0 1.0 0.00 0.00 0.00 82 1016.2
20260906034100 81 117 0.0 2.0 0.00 0.00 0.00 79 1016.0
20260906033556 81 103 0.0 0.0 0.00 0.00 0.00 80 1016.0
20260906033051 82 144 0.0 2.0 0.00 0.00 0.00 81 1016.0
20260906032547 82 224 0.0 2.0 0.00 0.00 0.00 80 1015.9
20260906032042 82 169 0.0 1.0 0.00 0.00 0.00 77 1015.9
20260906031538 82 142 0.0 0.0 0.00 0.00 0.00 78 1015.8
20260906031033 82 119 0.0 1.0 0.00 0.00 0.00 80 1015.7
20260906030532 82 117 0.0 1.0 0.00 0.00 0.00 81 1015.7
20260906030026 82 119 0.0 1.0 0.00 0.00 0.00 80 1015.7
20260906025526 82 129 0.0 1.0 0.00 0.00 0.00 80 1015.5
20260906025024 82 103 0.0 1.0 0.00 0.00 0.00 77 1015.6
20260906024519 82 124 0.0 1.0 0.00 0.00 0.00 77 1015.7
20260906024014 83 140 1.0 1.0 0.00 0.00 0.00 79 1015.8
20260906023510 83 142 0.0 0.0 0.00 0.00 0.00 76 1015.6
20260906023004 83 89 0.0 1.0 0.00 0.00 0.00 78 1015.1
20260906022500 84 147 0.0 1.0 0.00 0.00 0.00 78 1015.2
20260906021955 83 120 0.0 2.0 0.00 0.00 0.00 77 1015.1
20260906021449 84 124 0.0 1.0 0.00 0.00 0.00 78 1015.1
20260906020944 84 103 0.0 1.0 0.00 0.00 0.00 77 1014.9
20260906020438 84 157 0.0 1.0 0.00 0.00 0.00 76 1014.9
20260906015932 84 130 0.0 1.0 0.00 0.00 0.00 74 1014.8
20260906015427 84 104 0.0 1.0 0.00 0.00 0.00 76 1014.9
20260906014927 86 230 0.0 1.0 0.00 0.00 0.00 71 1014.8
20260906014426 85 124 0.0 0.0 0.00 0.00 0.00 73 1014.8
20260906013922 85 124 0.0 1.0 0.00 0.00 0.00 73 1015.0
20260906013418 86 129 0.0 0.0 0.00 0.00 0.00 72 1014.5
20260906012914 86 129 0.0 0.0 0.00 0.00 0.00 71 1014.5
20260906012408 87 142 0.0 0.0 0.00 0.00 0.00 71 1014.5
20260906011908 86 142 0.0 1.0 0.00 0.00 0.00 71 1014.5
20260906011403 87 130 0.0 0.0 0.00 0.00 0.00 70 1014.5
20260906010858 88 201 0.0 1.0 0.00 0.00 0.00 68 1014.3
20260906010354 88 117 0.0 0.0 0.00 0.00 0.00 68 1014.2
20260906005850 88 230 0.0 1.0 0.00 0.00 0.00 69 1014.3
20260906005349 88 117 0.0 1.0 0.00 0.00 0.00 66 1014.1
20260906004848 90 217 0.0 0.0 0.00 0.00 0.00 66 1014.1
20260906004347 90 242 0.0 1.0 0.00 0.00 0.00 63 1014.3
20260906003842 89 142 0.0 1.0 0.00 0.00 0.00 65 1014.0
20260906003338 90 116 0.0 1.0 0.00 0.00 0.00 65 1013.8
20260906002834 91 117 0.0 1.0 0.00 0.00 0.00 64 1013.9
20260906002333 92 255 0.0 0.0 0.00 0.00 0.00 60 1014.1
20260906001828 93 89 0.0 0.0 0.00 0.00 0.00 60 1014.3
20260906001324 94 242 0.0 1.0 0.00 0.00 0.00 57 1014.0
20260906000819 94 269 0.0 2.0 0.00 0.00 0.00 56 1014.1
20260906000313 94 322 0.0 1.0 0.00 0.00 0.00 57 1014.0
20260905235809 94 309 0.0 0.0 0.00 0.00 0.00 57 1014.0
20260905235308 95 117 0.0 0.0 0.00 0.00 0.00 56 1014.1
20260905234804 95 245 0.0 1.0 0.00 0.00 0.00 55 1014.1
20260905234259 96 193 0.0 1.0 0.00 0.00 0.00 55 1014.1
20260905233754 96 62 0.0 1.0 0.00 0.00 0.00 55 1014.1
20260905233254 96 266 1.0 2.0 0.00 0.00 0.00 53 1014.1
20260905232753 96 118 1.0 1.0 0.00 0.00 0.00 56 1014.2
20260905232249 96 249 0.0 2.0 0.00 0.00 0.00 54 1014.3
20260905231745 95 326 0.0 2.0 0.00 0.00 0.00 56 1014.4
20260905231240 95 199 0.0 3.0 0.00 0.00 0.00 56 1014.3
20260905230736 96 62 0.0 1.0 0.00 0.00 0.00 53 1014.3
20260905230233 96 233 0.0 2.0 0.00 0.00 0.00 53 1014.1
20260905225733 95 203 2.0 3.0 0.00 0.00 0.00 56 1014.3
20260905225229 98 166 0.0 3.0 0.00 0.00 0.00 54 1014.1
20260905224727 98 268 1.0 2.0 0.00 0.00 0.00 48 1014.3
20260905224223 99 237 1.0 3.0 0.00 0.00 0.00 48 1014.0
20260905223719 101 220 1.0 2.0 0.00 0.00 0.00 50 1014.0
20260905223216 102 254 2.0 2.0 0.00 0.00 0.00 47 1014.0
20260905222712 103 194 0.0 2.0 0.00 0.00 0.00 45 1014.2
20260905222210 103 224 0.0 2.0 0.00 0.00 0.00 47 1014.1
20260905221706 102 260 1.0 2.0 0.00 0.00 0.00 47 1014.0
20260905221203 100 246 1.0 3.0 0.00 0.00 0.00 48 1014.2
20260905220659 102 261 1.0 2.0 0.00 0.00 0.00 46 1014.1
20260905220154 104 260 0.0 2.0 0.00 0.00 0.00 45 1014.0
20260905215649 104 242 0.0 2.0 0.00 0.00 0.00 42 1014.3
20260905215144 103 228 1.0 2.0 0.00 0.00 0.00 43 1014.2
20260905214640 104 273 1.0 2.0 0.00 0.00 0.00 44 1014.1
20260905214135 103 195 2.0 3.0 0.00 0.00 0.00 43 1014.4
20260905213630 105 248 2.0 3.0 0.00 0.00 0.00 42 1014.2
20260905213125 103 265 2.0 4.0 0.00 0.00 0.00 43 1014.0
20260905212620 105 57 0.0 2.0 0.00 0.00 0.00 41 1014.2
20260905212114 104 264 2.0 3.0 0.00 0.00 0.00 41 1014.1
20260905211609 105 251 2.0 3.0 0.00 0.00 0.00 39 1014.4
20260905211105 104 220 1.0 3.0 0.00 0.00 0.00 39 1014.3
20260905210602 104 278 2.0 3.0 0.00 0.00 0.00 40 1014.3
20260905210055 102 134 1.0 3.0 0.00 0.00 0.00 44 1014.4
20260905205554 102 238 2.0 3.0 0.00 0.00 0.00 42 1014.6
20260905205049 102 268 2.0 4.0 0.00 0.00 0.00 43 1014.7
20260905204544 100 163 2.0 6.0 0.00 0.00 0.00 41 1014.6
20260905204039 99 247 2.0 7.0 0.00 0.00 0.00 45 1014.6
20260905203538 105 228 0.0 3.0 0.00 0.00 0.00 44 1014.5
20260905203034 105 211 0.0 3.0 0.00 0.00 0.00 42 1014.4
20260905202529 103 292 2.0 2.0 0.00 0.00 0.00 44 1014.6
20260905202025 102 235 1.0 3.0 0.00 0.00 0.00 44 1014.6
20260905201520 103 264 2.0 3.0 0.00 0.00 0.00 43 1014.6
20260905201019 105 283 0.0 2.0 0.00 0.00 0.00 42 1014.7
20260905200515 106 51 2.0 4.0 0.00 0.00 0.00 40 1014.7
20260905200015 106 171 1.0 5.0 0.00 0.00 0.00 38 1014.7
20260905195515 109 223 2.0 3.0 0.00 0.00 0.00 38 1014.8
20260905195010 107 249 2.0 3.0 0.00 0.00 0.00 38 1014.9
20260905194509 107 277 3.0 4.0 0.00 0.00 0.00 38 1015.0
20260905194003 107 290 2.0 4.0 0.00 0.00 0.00 38 1014.9
20260905193458 106 230 1.0 3.0 0.00 0.00 0.00 40 1015.1
20260905192953 108 136 1.0 6.0 0.00 0.00 0.00 38 1015.2
20260905192449 109 260 2.0 5.0 0.00 0.00 0.00 38 1015.4
20260905191945 108 250 3.0 4.0 0.00 0.00 0.00 37 1015.2
20260905191443 108 249 2.0 5.0 0.00 0.00 0.00 38 1015.4
20260905190942 106 60 1.0 6.0 0.00 0.00 0.00 39 1015.4
20260905190436 107 146 3.0 4.0 0.00 0.00 0.00 38 1015.6
20260905185934 106 255 1.0 5.0 0.00 0.00 0.00 39 1015.4
20260905185429 105 223 2.0 6.0 0.00 0.00 0.00 40 1015.5
20260905184928 107 178 2.0 6.0 0.00 0.00 0.00 37 1015.4
20260905184423 108 193 4.0 6.0 0.00 0.00 0.00 37 1015.6
20260905183921 107 242 0.0 3.0 0.00 0.00 0.00 39 1015.7
20260905183416 106 310 2.0 4.0 0.00 0.00 0.00 39 1015.7
20260905182912 105 252 2.0 9.0 0.00 0.00 0.00 44 1015.7
20260905182410 105 0 1.0 5.0 0.00 0.00 0.00 42 1015.9
20260905181907 105 241 2.0 6.0 0.00 0.00 0.00 39 1015.7
20260905181407 105 266 3.0 5.0 0.00 0.00 0.00 43 1016.0
20260905180905 105 195 3.0 6.0 0.00 0.00 0.00 42 1016.0
20260905180401 105 234 2.0 5.0 0.00 0.00 0.00 43 1016.1
20260905175855 103 14 1.0 4.0 0.00 0.00 0.00 45 1016.0
20260905175355 104 261 1.0 5.0 0.00 0.00 0.00 45 1016.0
20260905174850 105 320 3.0 4.0 0.00 0.00 0.00 45 1016.0
20260905174346 103 253 3.0 7.0 0.00 0.00 0.00 45 1016.1
20260905173842 103 203 4.0 8.0 0.00 0.00 0.00 44 1016.0
20260905173337 102 241 1.0 5.0 0.00 0.00 0.00 49 1016.2
20260905172832 103 162 0.0 5.0 0.00 0.00 0.00 44 1016.4
20260905172330 102 179 0.0 4.0 0.00 0.00 0.00 50 1016.4
20260905171827 103 167 0.0 4.0 0.00 0.00 0.00 44 1016.4
20260905171323 103 132 1.0 4.0 0.00 0.00 0.00 46 1016.6
20260905170819 102 239 2.0 5.0 0.00 0.00 0.00 45 1016.4
20260905170315 102 126 2.0 7.0 0.00 0.00 0.00 45 1016.5
20260905165814 102 269 0.0 3.0 0.00 0.00 0.00 46 1016.7
20260905165310 101 219 1.0 3.0 0.00 0.00 0.00 47 1016.8
20260905164809 100 206 0.0 4.0 0.00 0.00 0.00 51 1017.0
20260905164304 100 279 2.0 5.0 0.00 0.00 0.00 48 1016.7
20260905163759 98 244 3.0 4.0 0.00 0.00 0.00 50 1016.8
20260905163256 98 255 1.0 4.0 0.00 0.00 0.00 50 1016.9
20260905162752 99 211 1.0 5.0 0.00 0.00 0.00 50 1017.0
20260905162251 98 172 2.0 4.0 0.00 0.00 0.00 51 1016.9
20260905161746 99 140 0.0 3.0 0.00 0.00 0.00 52 1017.1
20260905161244 99 80 0.0 3.0 0.00 0.00 0.00 49 1017.0
20260905160737 98 164 0.0 3.0 0.00 0.00 0.00 52 1016.9
20260905160232 97 183 0.0 2.0 0.00 0.00 0.00 56 1017.2
20260905155726 97 230 0.0 4.0 0.00 0.00 0.00 54 1017.0
20260905155225 96 166 2.0 2.0 0.00 0.00 0.00 56 1017.0
20260905154719 96 266 2.0 3.0 0.00 0.00 0.00 58 1017.0
20260905154215 95 258 2.0 4.0 0.00 0.00 0.00 58 1017.0
20260905153711 95 268 1.0 5.0 0.00 0.00 0.00 58 1017.1
20260905153207 95 65 1.0 3.0 0.00 0.00 0.00 56 1017.1
20260905152701 95 261 2.0 2.0 0.00 0.00 0.00 58 1017.1
20260905152156 94 307 2.0 3.0 0.00 0.00 0.00 59 1017.1
20260905151656 93 201 2.0 7.0 0.00 0.00 0.00 59 1017.2
20260905151151 92 275 3.0 4.0 0.00 0.00 0.00 60 1017.0
20260905150652 93 181 1.0 5.0 0.00 0.00 0.00 60 1017.0
20260905150150 91 297 0.0 3.0 0.00 0.00 0.00 64 1017.0
20260905145648 90 168 1.0 5.0 0.00 0.00 0.00 66 1017.3
20260905145143 89 269 0.0 3.0 0.00 0.00 0.00 71 1017.0
20260905144638 89 196 1.0 2.0 0.00 0.00 0.00 71 1017.1
20260905144137 91 238 2.0 2.0 0.00 0.00 0.00 68 1017.2
20260905143631 89 224 0.0 4.0 0.00 0.00 0.00 68 1017.0